Location: Владивосток
(43.1151°N, 131.8856°E)
Time: 19:53:58
(UTC+10:00)

CUBEBUG 2 - Pass Details

Date: 05 July 2022
Orbit: 584 x 693 km, 97.7° (Epoch: 07 August)

Event Time Altitude Azimuth Distance (km) Brightness Sun altitude
Rises 04:02:29 0° 15° (NNE) 2,845 ? -13.9°
Reaches altitude 10° 04:04:39 10° 18° (NNE) 1,950 ? -13.6°
Maximum altitude 04:08:51 67° 101° (E) 668 ? -13.1°
Enters shadow 04:12:46 12° 184° (S) 1,833 ? -12.7°
